吉利星座2组06星 (GEESAT-2 06)

导读

GEESAT 2-06是中国于北京时间2024年2月2日8时发射的卫星,GEESAT 2系列卫星一般隶属于长光卫星技术有限公司研制的吉林一号卫星星座,承担着商业遥感任务,可获取高分辨率对地观测影像,服务于自然资源监测、农业估产、智慧城市建设等多个领域,将进一步丰富我国商业遥感卫星星座的数据获取能力。

基本信息
目录编号:
58910
目录名称:
GEESAT 2-06
国际标识:
2024-023F
轨道中心:
EARTH
卫星名称:
吉利星座2组06星
卫星全名:
吉利星座2组06星 (GEESAT-2 06)
卫星状态:
在轨 (已飞行952 天)
发射日期:
2024-02-02 UTC
国别 :
中国 (CN)
星等 :
--
该卫星已列入 空间交会检测服务 Space Conjunction Data Service (SCDS) ,当前飞行风险评估等级: 无高风险
轨道信息
数据来源 国际轨道数据 AOE轨道数据
星历时间 2026-09-11T14:08:26+0800
7小时前
查看轨道信息
2026-09-10T21:00:00+0800
1天前
查看轨道信息
半长轴 6930.114km 6930.128km
偏心率 0.0005874 0.00059
轨道倾角 49.987° 49.986°
近地点辐角 31.229° 29.634°
升交点赤经 247.545° 250.969°
平近点角 328.900° 58.570°
近地点 547.906km 547.902km
远地点 556.048km 556.08km
周期 95.691分钟 95.691分钟
每日圈数 15.048466 15.048421
详细信息
平衡模式:
三轴稳定
覆盖范围:
全球
运营商:
时空道宇科技有限公司
运营商所在国:
中国
制造商(研发单位):
时空道宇科技有限公司
制造商所在国:
中国
使用方式:
暂无
卫星简介
吉利星座(GeeSAT)也称“吉利未来出行星座”,由吉利旗下时空道宇自主研发,布局硬核科技生态,赋能智慧出行、无人系统、智慧城市等领域,并将全面提升吉利控股旗下极氪、领克、远程新能源商用车等品牌的用户智能出行体验。通过“吉利未来出行星座”建设,吉利控股集团将构建天地一体化高精时空信息系统。该卫星仍在工作。
2D轨道图
3D轨道图
轨道高度分析图
轨道倾角分析图
轨道综合分析图
查看轨道综合分析图
交会数据列表
事件ID 空间交会对象 最接近时刻(TCA) 交会距离 交会风险概率(CRP) 交会风险指数(CRI) 操作
CDM_260912-183603-488405-891024
2026-09-12T
18:36:49+0000
1.937 km
极远距离
1.358282E-6 低风险 0.38
与全量物体交会距离演化趋势
与全量物体交会风险概率演化趋势